Погода в Приморске

Россия / Волгоградская область     49°16′03″N   45°01′56″E
темп.,
°C
ветер,
м/с
пор.,
м/с
влажн.,
%
обл.,
%
осадки,
мм/ч
давл.,
гПа
погр.,
м
13 июня, вс
вс1300:00+18ю117611 0.0 101211
03:00+17сз1183100 0.5 101211
06:00+18юз0077100 0.3 101233
09:00+18ююв2287100 2.1 101387
12:00+19ююз71077100 0.1 1013284
15:00+20ю5769100 0.2 1012299
18:00+20ю3371100 0.0 101247
21:00+19ююв2369100 0.4 101315
14 июня, пн
пн1400:00+19ю4580100 0.4 101354
03:00+17ююз3390100 0.8 101236
06:00+17ссв3492100 1.4 101473
09:00+17с5993100 1.6 1013150
12:00+19св4584100 0.0 1013144
15:00+19св6783100 0.1 1014230
18:00+17ссв5892100 0.1 1013162
21:00+17ссв469589 0.3 1013123
15 июня, вт
вт1500:00+17ссв4697100 0.1 1012116
03:00+16ссв459849 0.1 101187
06:00+16ссв5697100 0.0 1011142
09:00+19ссв55865 0.0 1010215
12:00+21с44750 0.0 1009410
15:00+21ссз226967 0.0 1008401
18:00+22сз577414 0.0 1007121
21:00+21сз588033 0.0 100895
16 июня, ср
ср1600:00+19сз478643 0.0 100989
03:00+17сз34880 0.0 100950
06:00+18сз34840 0.0 101077
09:00+21зсз237217 0.0 1011233
12:00+24з236144 0.0 1010437
15:00+25з1257100 0.0 1010597
18:00+25ссв3361100 0.0 101028
21:00+20ссз7118898 0.6 1013167
17 июня, чт
чт1700:00+20с4582100 0.1 101260
03:00+18с4893100 2.8 1013104
06:00+18ссв4793100 1.9 1014121
09:00+20ссв67781 2.6 1014252
12:00+23св8106457 0.1 1014390
15:00+24св91258100 0.1 1014448
18:00+23св91362100 0.0 1015365
21:00+20св11186660 0.4 1015395